Weather Roundup
Issued by NWS Chicago, IL

Home | Current Version | Previous Version | Graphics & Text | Print | Product List | Glossary On
Versions: 1 2 3 4 5 6 7 8 9 10 11 12 13 14 15 16 17 18 19 20 21 22 23 24 25 26 27 28 29 30 31 32 33 34 35 36 37 38 39 40 41 42 43 44 45 46 47 48 49 50
000
NZUS59 KLOT 160403
HRRLOT

CHICAGO AREA WEATHER ROUNDUP
NATIONAL WEATHER SERVICE CHICAGO/ROMEOVILLE IL
1000 PM CST FRI DEC 15 2017

NOTE: "FAIR" INDICATES FEW OR NO CLOUDS BELOW 12,000 FEET WITH NO
SIGNIFICANT WEATHER AND/OR OBSTRUCTIONS TO VISIBILITY.

* THESE STATIONS ARE NOT UNDER NWS QUALITY CONTROL. THEY ALSO MAY NOT
  REPORT WEATHER SUCH AS PRECIPITATION OR FOG.

ILZ005-006-012>014-019>023-160500-
NORTHEAST ILLINOIS

CITY           SKY/WX    TMP DP  RH WIND       PRES   REMARKS
OHARE          CLOUDY    35  21  56 SW12      29.88F WCI  27
MIDWAY         CLOUDY    36  22  56 SW12      29.90F
AURORA         CLOUDY    36  22  56 SW15G23   29.90F
LANSING*       CLOUDY    35  24  63 SW13      29.92F WCI  26
JOLIET*        CLOUDY    38  22  52 SW9G20    29.92S
WAUKEGAN       CLOUDY    32  25  75 SW8       29.85F WCI  25
DUPAGE AIRPORT CLOUDY    35  23  61 SW13      29.88F WCI  26
WHEELING       CLOUDY    35  23  61 SW10      29.89F WCI  27
NORTHERLY ISL    N/A     35  20  54 S6          N/A  WCI  30
$$

WIZ051-052-058>065-066-070>072-160500-
SOUTHEAST WISCONSIN

CITY           SKY/WX    TMP DP  RH WIND       PRES   REMARKS
MILWAUKEE      LGT SNOW  31  28  89 SW6       29.85F FOG     WCI  25
KENOSHA*       CLOUDY    32  25  75 SW6       29.85F WCI  26
RACINE*        LGT SNOW  31  27  85 S3        29.87F FOG
$$

INZ001>003-010>013-019-020-160500-
NORTHWEST INDIANA

CITY           SKY/WX    TMP DP  RH WIND       PRES   REMARKS
GARY*          CLOUDY   N/A N/A N/A SW17      29.92F
MICHIGAN CITY* NOT AVBL
RENSSELAER*    NOT AVBL
VALPARAISO     CLOUDY    35  22  58 SW14      29.93F WCI  26
$$

LMZ740>746-160500-
SOUTHERN LAKE MICHIGAN

STATION/POSITION TIME  SKY/WX   TEMP WIND        PRES    VSBY
                                AIR  DIR/SP/G
                 (UTC)          (F)  (DEG/KT/KT) (MB)    (MI)
HARRISON CRIB    0340            37  210/ 17/ 20   N/A
BURNHAM HARBOR   0400            35  210/  6/  9   N/A
CALUMET HARBOR   0330            35  200/  8/ 10 1012.3F
BURNS HARBOR     0340            35  220/ 13/ 16 1013.5F
MICHIGAN CITY    0340            34  200/ 16/ 18   N/A
$$

ABBREVIATIONS USED IN REMARKS
   TC - TEMPERATURE IN CELSIUS
  WCI - WIND CHILL INDEX
   HX - HEAT INDEX
  VSB - VISIBILITY
$$




USA.gov is the U.S. government's official web portal to all federal, state and local government web resources and services.